Location: Dayton
(39.7590°N, 84.1920°W)
Time: 19:31:26
(UTC-05:00)

ATLAS CENTAUR R/B - Visible Passes

Search period start: 27 February 2015 00:00
Search period end: 09 March 2015 01:00
Orbit: 242 x 9062 km, 57.3° (Epoch: 17 February)

Date Brightness Start Highest point End Pass type
(mag) Time Alt. Az. Time Alt. Az. Time Alt. Az.
28 Feb 4.2 05:55:14 10° SSE 05:56:30 12° SE 05:57:36 10° ESE visible
02 Mar 3.7 05:51:49 10° S 05:54:05 17° SE 05:55:40 10° E visible
04 Mar 3.1 05:47:52 10° SSW 05:50:40 23° SE 05:52:28 10° ENE visible
06 Mar 2.4 05:43:11 10° SSW 05:46:18 33° SE 05:48:12 10° ENE visible
08 Mar 1.6 06:39:12 19° SSW 06:40:59 47° SE 06:42:55 10° ENE visible
